Simultaneous Nadir Overpasses (SNOs) Predictions

Prediction of SNOs between NOAA-21 and METOP-C Satellite Orbit:

Table of predicted SNOs for the next 14.0 days since TLE Epoch: 3/29/2024
Index Date (NOAA-21) Time (NOAA-21) Lat,Lon (NOAA-21) SZA (NOAA-21 ) Date (METOP-C) Time (METOP-C) Lat,Lon (METOP-C) SZA (METOP-C ) Distance(km) Time Diff (sec)
1 04/11/2024 23:02:29 -73.50, 4.28 115.08 04/11/2024 23:03:35 -73.47, 7.26 115.26 94.26 66
2 04/11/2024 23:53:11 73.32, 171.98 64.72 04/11/2024 23:54:19 73.25, 174.11 64.53 68.37 68
3 04/12/2024 00:43:53 -73.20, -20.43 115.43 04/12/2024 00:45:03 -73.14, -18.81 115.58 52.76 70
4 04/12/2024 01:34:35 73.02, 147.26 64.36 04/12/2024 01:35:46 72.98, 148.17 64.26 29.90 71
5 04/12/2024 02:25:17 -72.90, -45.17 115.79 04/12/2024 02:26:30 -72.87, -44.74 115.86 14.61 73
6 04/12/2024 03:16:00 72.78, 122.41 64.07 04/12/2024 03:17:11 72.80, 122.45 64.07 2.71 71



Historial Predications of SNOs between NOAA-21 and METOP-C
